This is the latest recevied weather packets stored in our database for station/object EA3HRE-10. If no packets are shown the sender has not sent any weather packets the latest 10 day(s).
| Time | Temp. | Humidity | Pressure | Rain* | Wind** | Luminosity | Snow |
|---|---|---|---|---|---|---|---|
| 1787760194 | 27.22° C | 48% | 1011.3 hPa | - | - | - | - |
| 1787759292 | 27.22° C | 49% | 1011.4 hPa | - | - | - | - |
| 1787758392 | 27.22° C | 48% | 1011.4 hPa | - | - | - | - |
| 1787757492 | 27.78° C | 49% | 1011.2 hPa | - | - | - | - |
| 1787756591 | 27.22° C | 51% | 1011.5 hPa | - | - | - | - |
| 1787755691 | 27.22° C | 52% | 1011.8 hPa | - | - | - | - |
| 1787754792 | 27.22° C | 52% | 1011.8 hPa | - | - | - | - |
| 1787753892 | 27.22° C | 53% | 1012.3 hPa | - | - | - | - |
| 1787752991 | 27.22° C | 52% | 1012.4 hPa | - | - | - | - |
| 1787752091 | 27.22° C | 54% | 1012.6 hPa | - | - | - | - |
| 1787751191 | 28.33° C | 54% | 1012.8 hPa | - | - | - | - |
| 1787750291 | 30° C | 54% | 1012.6 hPa | - | - | - | - |
| 1787749391 | 30° C | 54% | 1012.1 hPa | - | - | - | - |
| 1787748492 | 30° C | 54% | 1012.3 hPa | - | - | - | - |
| 1787747591 | 29.44° C | 53% | 1012 hPa | - | - | - | - |
| 1787746691 | 28.89° C | 54% | 1012.2 hPa | - | - | - | - |
| 1787745791 | 29.44° C | 54% | 1012.8 hPa | - | - | - | - |
| 1787744892 | 28.89° C | 56% | 1013.2 hPa | - | - | - | - |
| 1787743992 | 28.89° C | 57% | 1013.4 hPa | - | - | - | - |
| 1787743091 | 28.89° C | 57% | 1013.7 hPa | - | - | - | - |
| 1787742191 | 28.33° C | 57% | 1014 hPa | - | - | - | - |
| 1787741291 | 28.33° C | 58% | 1014.2 hPa | - | - | - | - |
| 1787740391 | 27.78° C | 61% | 1014.1 hPa | - | - | - | - |
| 1787739491 | 27.78° C | 56% | 1013.9 hPa | - | - | - | - |
| 1787738592 | 27.78° C | 52% | 1014.1 hPa | - | - | - | - |
* Rain since midnight (hover to see other rain measurements)
** Current wind speed in m/s (hover to see current wind gust speed)